| time (UTC) | temp F | wind direction | speed MPH | gust MPH | rain 1hr in | rain 24hr in | rain mn in | humidity % | barometer mb |
| 20260506101536 | 60 | 315 | 9.0 | 16.0 | 0.00 | 0.00 | 0.00 | 39 | 1014.8 |
| 20260506100516 | 60 | 315 | 10.0 | 23.0 | 0.00 | 0.00 | 0.00 | 42 | 1014.9 |
| 20260506095516 | 60 | 270 | 5.0 | 12.0 | 0.00 | 0.00 | 0.00 | 43 | 1015.0 |
| 20260506094516 | 59 | 270 | 5.0 | 13.0 | 0.00 | 0.00 | 0.00 | 44 | 1014.9 |
| 20260506093516 | 59 | 248 | 6.0 | 13.0 | 0.00 | 0.00 | 0.00 | 43 | 1015.1 |
| 20260506092536 | 59 | 338 | 6.0 | 14.0 | 0.00 | 0.00 | 0.00 | 45 | 1015.1 |
| 20260506091516 | 58 | 293 | 8.0 | 15.0 | 0.00 | 0.00 | 0.00 | 46 | 1015.0 |
| 20260506090517 | 57 | 270 | 7.0 | 14.0 | 0.00 | 0.00 | 0.00 | 47 | 1015.0 |
| 20260506085516 | 57 | 293 | 8.0 | 17.0 | 0.00 | 0.00 | 0.00 | 46 | 1015.0 |
| 20260506084516 | 57 | 270 | 5.0 | 11.0 | 0.00 | 0.00 | 0.00 | 48 | 1015.0 |
| 20260506083516 | 56 | 293 | 7.0 | 13.0 | 0.00 | 0.00 | 0.00 | 49 | 1014.9 |
| 20260506082516 | 56 | 248 | 5.0 | 11.0 | 0.00 | 0.00 | 0.00 | 49 | 1015.0 |
| 20260506081516 | 56 | 315 | 5.0 | 12.0 | 0.00 | 0.00 | 0.00 | 49 | 1014.9 |
| 20260506080516 | 55 | 293 | 6.0 | 12.0 | 0.00 | 0.00 | 0.00 | 49 | 1014.9 |
| 20260506073516 | 54 | 270 | 4.0 | 9.0 | 0.00 | 0.00 | 0.00 | 53 | 1015.0 |
| 20260506072517 | 53 | 270 | 5.0 | 10.0 | 0.00 | 0.00 | 0.00 | 53 | 1015.0 |
| 20260506071516 | 52 | 270 | 5.0 | 11.0 | 0.00 | 0.00 | 0.00 | 54 | 1015.1 |
| 20260506070516 | 52 | 293 | 5.0 | 11.0 | 0.00 | 0.00 | 0.00 | 55 | 1015.1 |
| 20260506062516 | 51 | 293 | 2.0 | 7.0 | 0.00 | 0.00 | 0.00 | 56 | 1015.0 |
| 20260506061516 | 51 | 293 | 2.0 | 5.0 | 0.00 | 0.00 | 0.00 | 56 | 1014.9 |
| 20260506060516 | 50 | 315 | 3.0 | 9.0 | 0.00 | 0.00 | 0.00 | 57 | 1014.9 |
| 20260506050518 | 49 | 270 | 4.0 | 8.0 | 0.00 | 0.00 | 0.00 | 59 | 1014.6 |
| 20260506044518 | 49 | 293 | 3.0 | 7.0 | 0.00 | 0.00 | 0.00 | 60 | 1014.5 |
| 20260506043518 | 49 | 293 | 3.0 | 6.0 | 0.00 | 0.00 | 0.00 | 60 | 1014.4 |
| 20260506042538 | 49 | 293 | 5.0 | 10.0 | 0.00 | 0.00 | 0.00 | 59 | 1014.3 |
| 20260506041518 | 49 | 315 | 4.0 | 9.0 | 0.00 | 0.00 | 0.00 | 59 | 1014.3 |
| 20260506040517 | 50 | 293 | 5.0 | 10.0 | 0.00 | 0.00 | 0.00 | 59 | 1014.4 |
| 20260506035517 | 50 | 315 | 5.0 | 9.0 | 0.00 | 0.00 | 0.00 | 59 | 1014.4 |
| 20260506034518 | 50 | 293 | 4.0 | 9.0 | 0.00 | 0.00 | 0.00 | 58 | 1014.5 |
| 20260506033518 | 50 | 270 | 5.0 | 9.0 | 0.00 | 0.00 | 0.00 | 58 | 1014.5 |
| 20260506032518 | 50 | 270 | 4.0 | 9.0 | 0.00 | 0.00 | 0.00 | 58 | 1014.5 |
| 20260506031517 | 51 | 270 | 3.0 | 7.0 | 0.00 | 0.00 | 0.00 | 57 | 1014.5 |
| 20260506030518 | 51 | 270 | 4.0 | 11.0 | 0.00 | 0.00 | 0.00 | 57 | 1014.4 |
| 20260506025518 | 51 | 293 | 3.0 | 7.0 | 0.00 | 0.00 | 0.00 | 57 | 1014.5 |
| 20260506024518 | 51 | 270 | 4.0 | 8.0 | 0.00 | 0.00 | 0.00 | 57 | 1014.4 |
| 20260506023517 | 51 | 293 | 4.0 | 10.0 | 0.00 | 0.00 | 0.00 | 57 | 1014.4 |
| 20260506022517 | 51 | 293 | 2.0 | 4.0 | 0.00 | 0.00 | 0.00 | 58 | 1014.3 |
| 20260506021537 | 51 | 270 | 4.0 | 8.0 | 0.00 | 0.00 | 0.00 | 58 | 1014.1 |
| 20260506020517 | 51 | 315 | 5.0 | 10.0 | 0.00 | 0.00 | 0.00 | 58 | 1014.1 |
| 20260506015517 | 51 | 315 | 4.0 | 10.0 | 0.00 | 0.00 | 0.00 | 58 | 1014.1 |
| 20260506014517 | 51 | 338 | 5.0 | 8.0 | 0.00 | 0.01 | 0.00 | 58 | 1014.1 |
| 20260506013518 | 52 | 338 | 4.0 | 6.0 | 0.00 | 0.01 | 0.00 | 57 | 1014.1 |
| 20260506012537 | 52 | 338 | 6.0 | 9.0 | 0.00 | 0.01 | 0.00 | 56 | 1014.1 |
| 20260506011538 | 52 | 293 | 5.0 | 10.0 | 0.00 | 0.01 | 0.00 | 56 | 1014.0 |
| 20260506010517 | 53 | 270 | 5.0 | 15.0 | 0.00 | 0.01 | 0.00 | 56 | 1014.0 |
| 20260506005517 | 53 | 203 | 4.0 | 15.0 | 0.00 | 0.01 | 0.00 | 57 | 1014.1 |
| 20260506004518 | 53 | 270 | 6.0 | 10.0 | 0.00 | 0.01 | 0.00 | 57 | 1014.1 |
| 20260506003538 | 53 | 270 | 7.0 | 14.0 | 0.00 | 0.01 | 0.00 | 57 | 1014.0 |
| 20260506002517 | 53 | 270 | 6.0 | 13.0 | 0.00 | 0.01 | 0.00 | 56 | 1014.2 |
| 20260506001518 | 53 | 315 | 5.0 | 12.0 | 0.00 | 0.01 | 0.00 | 56 | 1014.2 |
| 20260506000517 | 53 | 270 | 7.0 | 13.0 | 0.00 | 0.01 | 0.00 | 56 | 1014.2 |
| 20260505235517 | 53 | 270 | 6.0 | 11.0 | 0.00 | 0.01 | 0.01 | 56 | 1014.3 |
| 20260505234517 | 54 | 293 | 5.0 | 12.0 | 0.00 | 0.01 | 0.01 | 56 | 1014.3 |
| 20260505233538 | 54 | 270 | 6.0 | 13.0 | 0.00 | 0.01 | 0.01 | 56 | 1014.4 |
| 20260505232517 | 54 | 270 | 6.0 | 12.0 | 0.00 | 0.01 | 0.01 | 56 | 1014.5 |
| 20260505231518 | 54 | 248 | 5.0 | 11.0 | 0.00 | 0.01 | 0.01 | 56 | 1014.3 |
| 20260505230517 | 54 | 293 | 6.0 | 11.0 | 0.00 | 0.01 | 0.01 | 55 | 1014.3 |
| 20260505225517 | 54 | 293 | 6.0 | 12.0 | 0.00 | 0.01 | 0.01 | 55 | 1014.3 |
| 20260505224517 | 55 | 270 | 8.0 | 13.0 | 0.00 | 0.01 | 0.01 | 55 | 1014.4 |
| 20260505223517 | 55 | 293 | 7.0 | 12.0 | 0.00 | 0.01 | 0.01 | 55 | 1014.3 |
| 20260505222517 | 55 | 315 | 5.0 | 10.0 | 0.00 | 0.01 | 0.01 | 55 | 1014.3 |
| 20260505221537 | 55 | 293 | 3.0 | 9.0 | 0.00 | 0.01 | 0.01 | 55 | 1014.2 |
| 20260505220537 | 56 | 270 | 5.0 | 11.0 | 0.00 | 0.01 | 0.01 | 55 | 1014.2 |
| 20260505215518 | 56 | 293 | 5.0 | 11.0 | 0.00 | 0.01 | 0.01 | 55 | 1014.1 |
| 20260505214518 | 57 | 270 | 6.0 | 12.0 | 0.00 | 0.01 | 0.01 | 54 | 1014.1 |
| 20260505213517 | 57 | 248 | 5.0 | 10.0 | 0.00 | 0.01 | 0.01 | 54 | 1014.1 |
| 20260505212518 | 57 | 270 | 5.0 | 9.0 | 0.00 | 0.01 | 0.01 | 54 | 1014.2 |
| 20260505211537 | 57 | 225 | 3.0 | 9.0 | 0.00 | 0.01 | 0.01 | 54 | 1014.1 |
| 20260505210517 | 57 | 203 | 3.0 | 9.0 | 0.00 | 0.01 | 0.01 | 53 | 1014.0 |
| 20260505205537 | 58 | 248 | 1.0 | 6.0 | 0.00 | 0.01 | 0.01 | 53 | 1014.2 |
| 20260505204517 | 57 | 270 | 4.0 | 11.0 | 0.00 | 0.01 | 0.01 | 53 | 1013.9 |
| 20260505203517 | 58 | 315 | 4.0 | 8.0 | 0.00 | 0.01 | 0.01 | 52 | 1013.8 |
| 20260505202517 | 58 | 293 | 5.0 | 10.0 | 0.00 | 0.01 | 0.01 | 52 | 1014.0 |
| 20260505201517 | 58 | 315 | 4.0 | 8.0 | 0.00 | 0.01 | 0.01 | 50 | 1013.8 |
| 20260505200517 | 58 | 270 | 5.0 | 11.0 | 0.00 | 0.01 | 0.01 | 50 | 1013.7 |
| 20260505195517 | 59 | 270 | 7.0 | 12.0 | 0.00 | 0.01 | 0.01 | 48 | 1013.5 |
| 20260505194517 | 59 | 270 | 6.0 | 11.0 | 0.00 | 0.01 | 0.01 | 47 | 1013.4 |
| 20260505193517 | 59 | 293 | 5.0 | 11.0 | 0.00 | 0.01 | 0.01 | 46 | 1013.2 |
| 20260505192537 | 60 | 293 | 6.0 | 11.0 | 0.00 | 0.01 | 0.01 | 45 | 1012.9 |
| 20260505191517 | 60 | 315 | 4.0 | 9.0 | 0.00 | 0.01 | 0.01 | 43 | 1012.8 |
| 20260505190517 | 61 | 270 | 4.0 | 10.0 | 0.00 | 0.01 | 0.01 | 44 | 1013.1 |
| 20260505185517 | 61 | 180 | 4.0 | 11.0 | 0.00 | 0.01 | 0.01 | 47 | 1013.0 |
| 20260505184517 | 62 | 293 | 8.0 | 19.0 | 0.00 | 0.01 | 0.01 | 43 | 1012.8 |
| 20260505183517 | 62 | 315 | 6.0 | 13.0 | 0.00 | 0.01 | 0.01 | 43 | 1012.6 |
| 20260505182516 | 62 | 293 | 6.0 | 12.0 | 0.00 | 0.01 | 0.01 | 44 | 1012.2 |
| 20260505181517 | 62 | 315 | 9.0 | 15.0 | 0.00 | 0.01 | 0.01 | 43 | 1012.0 |
| 20260505180617 | 62 | 315 | 9.0 | 16.0 | 0.00 | 0.01 | 0.01 | 42 | 1011.9 |
| 20260505175517 | 62 | 338 | 11.0 | 20.0 | 0.00 | 0.01 | 0.01 | 42 | 1011.9 |
| 20260505174537 | 62 | 338 | 5.0 | 10.0 | 0.00 | 0.01 | 0.01 | 45 | 1011.8 |
| 20260505173517 | 62 | 338 | 4.0 | 8.0 | 0.00 | 0.01 | 0.01 | 45 | 1011.7 |
| 20260505172537 | 62 | 0 | 7.0 | 12.0 | 0.00 | 0.01 | 0.01 | 43 | 1011.6 |
| 20260505171516 | 63 | 0 | 15.0 | 20.0 | 0.00 | 0.01 | 0.01 | 43 | 1011.5 |
| 20260505170517 | 66 | 293 | 9.0 | 22.0 | 0.00 | 0.01 | 0.01 | 38 | 1011.5 |
| 20260505165517 | 66 | 270 | 5.0 | 12.0 | 0.00 | 0.01 | 0.01 | 37 | 1011.3 |
| 20260505164517 | 66 | 293 | 3.0 | 10.0 | 0.00 | 0.01 | 0.01 | 38 | 1011.4 |
| 20260505163516 | 66 | 293 | 7.0 | 15.0 | 0.00 | 0.01 | 0.01 | 39 | 1011.5 |
| 20260505162517 | 66 | 293 | 7.0 | 13.0 | 0.00 | 0.01 | 0.01 | 38 | 1011.4 |
| 20260505161516 | 67 | 293 | 7.0 | 15.0 | 0.00 | 0.01 | 0.01 | 35 | 1011.4 |
| 20260505160537 | 68 | 315 | 8.0 | 17.0 | 0.00 | 0.01 | 0.01 | 33 | 1011.3 |
| 20260505152516 | 67 | 270 | 5.0 | 13.0 | 0.00 | 0.01 | 0.01 | 34 | 1011.4 |
| 20260505151537 | 68 | 338 | 7.0 | 12.0 | 0.00 | 0.01 | 0.01 | 35 | 1011.3 |
| 20260505150537 | 68 | 270 | 2.0 | 7.0 | 0.00 | 0.03 | 0.01 | 33 | 1011.5 |
| 20260505140536 | 67 | 270 | 4.0 | 8.0 | 0.00 | 0.17 | 0.01 | 35 | 1012.1 |
| 20260505124516 | 64 | 203 | 2.0 | 4.0 | 0.00 | 0.18 | 0.01 | 40 | 1012.6 |
| 20260505123516 | 63 | 158 | 1.0 | 5.0 | 0.00 | 0.18 | 0.01 | 43 | 1012.8 |
| 20260505122516 | 61 | 180 | 3.0 | 8.0 | 0.00 | 0.18 | 0.01 | 46 | 1012.9 |
| 20260505121516 | 61 | 293 | 4.0 | 8.0 | 0.00 | 0.18 | 0.01 | 48 | 1012.7 |
| 20260505120516 | 62 | 315 | 8.0 | 14.0 | 0.00 | 0.18 | 0.01 | 46 | 1013.0 |
| 20260505115516 | 63 | 315 | 8.0 | 14.0 | 0.00 | 0.18 | 0.01 | 45 | 1013.0 |
| 20260505114516 | 64 | 293 | 5.0 | 14.0 | 0.00 | 0.18 | 0.01 | 50 | 1013.1 |
| 20260505113516 | 63 | 293 | 8.0 | 15.0 | 0.00 | 0.18 | 0.01 | 49 | 1013.3 |
| 20260505112516 | 63 | 225 | 3.0 | 9.0 | 0.00 | 0.18 | 0.01 | 50 | 1013.4 |
| 20260505111516 | 62 | 270 | 7.0 | 13.0 | 0.00 | 0.18 | 0.01 | 51 | 1013.5 |
| 20260505110516 | 62 | 270 | 6.0 | 13.0 | 0.00 | 0.18 | 0.01 | 52 | 1013.5 |